Flag for U.S.A. Weather past 2 weeks in Barrow, Alaska, U.S.A.

Now
32 °F

Light snow. Low clouds.


Feels Like: 22 °F
Forecast: 31 / 34 °F
Wind: 14 mph from North

Location: Post Rogers Memorial Airport

Current Time: Jul 24, 2014 at 3:27:39 AM

Latest Report: Jul 24, 2014 at 2:53 AM


Visibility: 2 mi

Pressure: 29.69 "Hg

Humidity: 92%

Dew point: 30 °F

Location of BarrowLocation

Historic Weather in Barrow — Graph

°F

Barrow temperature yesterday

Maximum temperature yesterday: 41 °F (at 1:03 PM)
Minimum temperature yesterday: 33 °F (at 12:53 AM)
Average temperature yesterday: 36 °F

Past Weeks' High & Low Weather Summary

 TemperatureHumidityPressure
High57 °F (Jul 16, 4:53 PM)100% (Jul 12, 1:03 AM)30.11 "Hg (Jul 12, 1:03 AM)
Low29 °F (Jul 15, 3:00 AM)63% (Jul 12, 4:53 PM)29.36 "Hg (Jul 21, 8:53 AM)
Average37 °F91%29.69 "Hg
* Reported Jul 9 4:53 AM — Jul 24 1:53 AM, Barrow, Weather by CustomWeather, © 2014

Note: Actual official high and low records may vary slightly from our data, if they occured in-between our weather recording intervals... More about our weather records

Advertising

Barrow weather history for previous 24 hours

 ConditionsComfort  
Time TempWeatherWind HumidityBarometerVisibility
1:53 AM
Jul 24
32 °FLight snow. Ice fog.16 mph93%29.67 "Hg1 mi
12:53 AM33 °FLight snow. Mostly cloudy.15 mph88%29.65 "Hg1 mi
11:53 PM
Jul 23
33 °FLight snow. Fog.18 mph96%29.63 "Hg1 mi
10:53 PM34 °FLight snow. Fog.16 mph97%29.61 "Hg2 mi
9:57 PM34 °FLight snow. Fog.15 mph97%29.60 "Hg2 mi
8:53 PM34 °FLight rain. Fog.16 mph97%29.59 "Hg6 mi
7:53 PM34 °FLight rain. Fog.17 mph97%29.58 "Hg6 mi
6:53 PM35 °FLight rain. Fog.17 mph92%29.58 "Hg4 mi
5:53 PM35 °FLight rain. Fog.17 mph96%29.58 "Hg6 mi
4:53 PM35 °FLight rain. Low clouds.17 mph96%29.59 "Hg9 mi
3:53 PM36 °FLight rain. Mostly cloudy.16 mph92%29.60 "Hg10 mi
2:53 PM37 °FFog.15 mph96%29.61 "Hg2 mi
1:58 PM38 °FFog.14 mph93%29.62 "Hg5 mi
1:03 PM41 °FCloudy.12 mph89%29.62 "Hg10 mi
12:53 PM40 °FMostly cloudy.13 mph93%29.62 "Hg10 mi
11:53 AM40 °FLow clouds.13 mph97%29.63 "Hg7 mi
10:53 AM37 °FFog.10 mph96%29.64 "Hg1 mi
9:53 AM36 °FFog.13 mph97%29.65 "Hg1 mi
8:53 AM36 °FMore clouds than sun.13 mph92%29.67 "Hg10 mi
7:53 AM36 °FMore clouds than sun.12 mph92%29.68 "Hg10 mi
6:53 AM35 °FMostly cloudy.12 mph96%29.69 "Hg10 mi
5:53 AM35 °FLow clouds.10 mph96%29.71 "Hg10 mi
4:53 AM34 °FLow clouds.9 mph92%29.72 "Hg10 mi
3:53 AM34 °FLow clouds.7 mph92%29.73 "Hg10 mi
Weather by CustomWeather, © 2014

See weather overviewHow to use our weather pages